Tracking 19636 objects as of 24-May-2019
HD Live streaming from Space Station
objects crossing your sky now

WEINA 1B

Track WEINA 1B now!
10-day predictions


NORAD ID: 43279
Int'l Code: 2018-034E
Perigee: 1,064.5 km
Apogee: 1,129.7 km
Inclination: 63.4 °
Period: 107.0 minutes
Semi major axis: 7468 km
RCS: Unknown
Launch date: April 10, 2018
Source: People's Republic of China (PRC)
Launch site: Jiuquan Satellite Launch Center, China (JSC)
aabbcc
Your satellite tracking list
Your tracking list is empty




NASA's NSSDC Master Catalog

Two Line Element Set (TLE):
1 43279U 18034E   19143.75656270  .00000439  00000-0  88983-3 0  9992
2 43279  63.4071 243.8886 0043677   6.8456 353.3098 13.45207792 54946
Source of the keplerian elements: AFSPC